| time (UTC) | temp F | wind direction | speed MPH | gust MPH | rain 1hr in | rain 24hr in | rain mn in | humidity % | barometer mb |
| 20260505050539 | 55 | 240 | 1.0 | 7.0 | 0.00 | 0.00 | 0.01 | 86 | 1014.0 |
| 20260505041535 | 55 | 246 | 1.0 | 10.0 | 0.00 | 0.00 | 0.01 | 84 | 1014.1 |
| 20260505041035 | 55 | 243 | 2.0 | 10.0 | 0.00 | 0.00 | 0.01 | 84 | 1014.0 |
| 20260505040535 | 56 | 244 | 1.0 | 6.0 | 0.00 | 0.00 | 0.01 | 85 | 1014.0 |
| 20260505040030 | 56 | 246 | 2.0 | 6.0 | 0.00 | 0.00 | 0.01 | 85 | 1014.0 |
| 20260505035531 | 56 | 257 | 2.0 | 7.0 | 0.00 | 0.00 | 0.01 | 85 | 1013.9 |
| 20260505035030 | 56 | 214 | 2.0 | 8.0 | 0.00 | 0.00 | 0.01 | 85 | 1013.9 |
| 20260505034530 | 56 | 223 | 2.0 | 8.0 | 0.00 | 0.00 | 0.01 | 84 | 1013.9 |
| 20260505034248 | 56 | 233 | 1.0 | 8.0 | 0.00 | 0.00 | 0.01 | 84 | 1013.8 |
| 20260505033531 | 56 | 252 | 1.0 | 8.0 | 0.00 | 0.00 | 0.01 | 84 | 1013.9 |
| 20260505033030 | 56 | 248 | 2.0 | 9.0 | 0.00 | 0.00 | 0.01 | 83 | 1013.8 |
| 20260505032755 | 56 | 242 | 2.0 | 10.0 | 0.00 | 0.00 | 0.01 | 83 | 1013.9 |
| 20260505032031 | 56 | 253 | 2.0 | 10.0 | 0.00 | 0.00 | 0.01 | 83 | 1013.8 |
| 20260505031759 | 56 | 265 | 2.0 | 10.0 | 0.00 | 0.00 | 0.01 | 83 | 1013.7 |
| 20260505031251 | 56 | 259 | 3.0 | 10.0 | 0.00 | 0.00 | 0.01 | 83 | 1013.7 |
| 20260505030529 | 56 | 252 | 2.0 | 8.0 | 0.00 | 0.00 | 0.01 | 83 | 1013.6 |
| 20260505030030 | 56 | 244 | 2.0 | 9.0 | 0.00 | 0.00 | 0.01 | 82 | 1013.7 |
| 20260505025531 | 56 | 232 | 2.0 | 9.0 | 0.00 | 0.00 | 0.01 | 80 | 1013.4 |
| 20260505025030 | 56 | 237 | 2.0 | 9.0 | 0.00 | 0.00 | 0.01 | 80 | 1013.3 |
| 20260505024531 | 56 | 240 | 4.0 | 12.0 | 0.00 | 0.00 | 0.01 | 80 | 1013.3 |
| 20260505024029 | 56 | 245 | 4.0 | 12.0 | 0.00 | 0.00 | 0.01 | 80 | 1013.4 |
| 20260505023528 | 56 | 230 | 5.0 | 12.0 | 0.00 | 0.00 | 0.01 | 79 | 1013.4 |
| 20260505023025 | 56 | 257 | 5.0 | 12.0 | 0.00 | 0.00 | 0.01 | 79 | 1013.4 |
| 20260505022526 | 56 | 254 | 4.0 | 12.0 | 0.00 | 0.00 | 0.01 | 78 | 1013.4 |
| 20260505022026 | 57 | 237 | 5.0 | 13.0 | 0.00 | 0.00 | 0.01 | 78 | 1013.7 |
| 20260505022015 | 57 | 246 | 5.0 | 13.0 | 0.00 | 0.00 | 0.01 | 77 | 1013.6 |
| 20260505021027 | 57 | 236 | 4.0 | 12.0 | 0.00 | 0.00 | 0.01 | 77 | 1013.6 |
| 20260505020526 | 57 | 209 | 4.0 | 12.0 | 0.00 | 0.00 | 0.01 | 77 | 1013.6 |
| 20260505020027 | 57 | 232 | 4.0 | 12.0 | 0.00 | 0.00 | 0.01 | 76 | 1013.4 |
| 20260505015528 | 57 | 259 | 4.0 | 12.0 | 0.00 | 0.00 | 0.01 | 75 | 1013.7 |
| 20260505015028 | 58 | 233 | 4.0 | 12.0 | 0.00 | 0.00 | 0.01 | 75 | 1013.8 |
| 20260505014529 | 58 | 209 | 4.0 | 11.0 | 0.00 | 0.00 | 0.01 | 74 | 1013.7 |
| 20260505014248 | 59 | 242 | 3.0 | 11.0 | 0.00 | 0.00 | 0.01 | 72 | 1013.8 |
| 20260505013517 | 59 | 219 | 4.0 | 14.0 | 0.00 | 0.00 | 0.01 | 71 | 1013.8 |
| 20260505013015 | 60 | 228 | 5.0 | 14.0 | 0.00 | 0.00 | 0.01 | 70 | 1013.9 |
| 20260505012517 | 60 | 233 | 4.0 | 11.0 | 0.00 | 0.00 | 0.01 | 68 | 1013.6 |
| 20260505012018 | 60 | 188 | 4.0 | 11.0 | 0.00 | 0.00 | 0.01 | 69 | 1013.7 |
| 20260505011520 | 60 | 219 | 4.0 | 12.0 | 0.00 | 0.00 | 0.01 | 68 | 1013.7 |
| 20260505011246 | 60 | 248 | 5.0 | 15.0 | 0.00 | 0.00 | 0.01 | 68 | 1013.7 |
| 20260505010512 | 60 | 240 | 6.0 | 15.0 | 0.00 | 0.00 | 0.01 | 68 | 1013.8 |
| 20260505010011 | 60 | 213 | 7.0 | 15.0 | 0.00 | 0.00 | 0.01 | 66 | 1013.8 |
| 20260505005511 | 60 | 259 | 7.0 | 15.0 | 0.00 | 0.00 | 0.01 | 65 | 1013.7 |
| 20260505005009 | 61 | 241 | 7.0 | 15.0 | 0.00 | 0.00 | 0.01 | 63 | 1013.7 |
| 20260505004511 | 61 | 246 | 6.0 | 15.0 | 0.00 | 0.00 | 0.01 | 66 | 1013.4 |
| 20260505004007 | 61 | 241 | 5.0 | 15.0 | 0.00 | 0.00 | 0.01 | 65 | 1013.6 |
| 20260505003506 | 61 | 236 | 6.0 | 15.0 | 0.00 | 0.00 | 0.01 | 65 | 1013.4 |
| 20260505003003 | 62 | 281 | 6.0 | 15.0 | 0.00 | 0.00 | 0.01 | 63 | 1013.7 |
| 20260505002505 | 62 | 254 | 6.0 | 15.0 | 0.00 | 0.00 | 0.01 | 63 | 1013.6 |
| 20260505002234 | 62 | 259 | 6.0 | 12.0 | 0.00 | 0.00 | 0.01 | 60 | 1013.6 |
| 20260505001503 | 62 | 269 | 6.0 | 13.0 | 0.00 | 0.00 | 0.01 | 61 | 1013.4 |
| 20260505001001 | 62 | 253 | 7.0 | 13.0 | 0.00 | 0.00 | 0.01 | 60 | 1013.7 |
| 20260505000502 | 62 | 257 | 6.0 | 13.0 | 0.00 | 0.00 | 0.01 | 59 | 1013.6 |
| 20260504235959 | 63 | 257 | 5.0 | 12.0 | 0.00 | 0.00 | 0.01 | 61 | 1013.6 |
| 20260504235653 | 62 | 196 | 7.0 | 16.0 | 0.00 | 0.00 | 0.01 | 64 | 1013.7 |
| 20260504235543 | 63 | 273 | 5.0 | 16.0 | 0.00 | 0.00 | 0.01 | 62 | 1013.7 |
| 20260504234718 | 62 | 234 | 8.0 | 16.0 | 0.00 | 0.00 | 0.01 | 64 | 1013.4 |
| 20260504234217 | 62 | 279 | 8.0 | 16.0 | 0.00 | 0.00 | 0.01 | 63 | 1013.3 |
| 20260504233937 | 62 | 259 | 7.0 | 15.0 | 0.00 | 0.00 | 0.01 | 62 | 1013.3 |
| 20260504232952 | 62 | 242 | 6.0 | 17.0 | 0.00 | 0.00 | 0.01 | 61 | 1013.3 |
| 20260504232452 | 62 | 243 | 7.0 | 17.0 | 0.00 | 0.00 | 0.01 | 62 | 1013.3 |
| 20260504231952 | 63 | 242 | 7.0 | 17.0 | 0.00 | 0.00 | 0.01 | 60 | 1013.3 |
| 20260504231723 | 64 | 259 | 6.0 | 17.0 | 0.00 | 0.00 | 0.01 | 57 | 1013.4 |
| 20260504230947 | 65 | 240 | 5.0 | 18.0 | 0.00 | 0.00 | 0.01 | 57 | 1013.3 |
| 20260504230443 | 65 | 236 | 6.0 | 18.0 | 0.00 | 0.00 | 0.01 | 57 | 1013.4 |
| 20260504230210 | 65 | 261 | 6.0 | 18.0 | 0.00 | 0.00 | 0.01 | 56 | 1013.4 |
| 20260504225437 | 65 | 234 | 6.0 | 18.0 | 0.00 | 0.00 | 0.01 | 56 | 1013.2 |
| 20260504224932 | 64 | 211 | 9.0 | 18.0 | 0.00 | 0.00 | 0.01 | 56 | 1013.1 |
| 20260504224432 | 64 | 230 | 8.0 | 18.0 | 0.00 | 0.00 | 0.01 | 56 | 1013.3 |
| 20260504223929 | 64 | 238 | 6.0 | 16.0 | 0.00 | 0.00 | 0.01 | 56 | 1013.4 |
| 20260504223429 | 64 | 278 | 6.0 | 16.0 | 0.00 | 0.00 | 0.01 | 53 | 1013.4 |
| 20260504222926 | 65 | 244 | 6.0 | 17.0 | 0.00 | 0.00 | 0.01 | 55 | 1013.4 |
| 20260504222648 | 65 | 268 | 6.0 | 17.0 | 0.00 | 0.00 | 0.01 | 55 | 1013.6 |
| 20260504221926 | 65 | 253 | 6.0 | 17.0 | 0.00 | 0.00 | 0.01 | 54 | 1013.8 |
| 20260504221428 | 65 | 240 | 6.0 | 17.0 | 0.00 | 0.00 | 0.01 | 54 | 1013.8 |
| 20260504220924 | 65 | 254 | 6.0 | 17.0 | 0.00 | 0.00 | 0.01 | 54 | 1013.9 |
| 20260504220425 | 65 | 275 | 6.0 | 17.0 | 0.00 | 0.00 | 0.01 | 52 | 1014.0 |
| 20260504215924 | 65 | 254 | 6.0 | 16.0 | 0.00 | 0.00 | 0.01 | 53 | 1014.1 |
| 20260504215425 | 65 | 200 | 5.0 | 16.0 | 0.00 | 0.00 | 0.01 | 53 | 1014.1 |
| 20260504215147 | 65 | 237 | 4.0 | 16.0 | 0.00 | 0.00 | 0.01 | 53 | 1014.1 |
| 20260504214423 | 65 | 233 | 5.0 | 16.0 | 0.00 | 0.00 | 0.01 | 53 | 1014.1 |
| 20260504213923 | 65 | 240 | 5.0 | 13.0 | 0.00 | 0.00 | 0.01 | 53 | 1014.3 |
| 20260504213646 | 65 | 261 | 4.0 | 13.0 | 0.00 | 0.00 | 0.01 | 54 | 1014.2 |
| 20260504212919 | 64 | 0.0 | 0.0 | 0.00 | 0.00 | 0.01 | 55 | 1014.2 | |
| 20260504212635 | 0 | 0.0 | 0.0 | 0.00 | 0.00 | 0.01 | 1014.3 | ||
| 20260504151147 | 55 | 239 | 0.0 | 5.0 | 0.00 | 0.01 | 0.01 | 83 | 1014.3 |
| 20260504150647 | 54 | 236 | 0.0 | 3.0 | 0.00 | 0.01 | 0.01 | 83 | 1014.2 |
| 20260504150144 | 54 | 236 | 0.0 | 5.0 | 0.00 | 0.01 | 0.01 | 84 | 1014.2 |
| 20260504140916 | 53 | 245 | 0.0 | 3.0 | 0.00 | 0.01 | 0.01 | 85 | 1013.9 |
| 20260504140415 | 52 | 213 | 0.0 | 3.0 | 0.00 | 0.01 | 0.01 | 84 | 1014.0 |
| 20260504130412 | 51 | 242 | 0.0 | 0.0 | 0.00 | 0.02 | 0.01 | 88 | 1013.6 |
| 20260504110359 | 52 | 236 | 1.0 | 8.0 | 0.00 | 0.03 | 0.01 | 89 | 1013.3 |
| 20260504100355 | 53 | 245 | 2.0 | 7.0 | 0.00 | 0.03 | 0.01 | 91 | 1013.0 |
| 20260504081843 | 53 | 259 | 0.0 | 5.0 | 0.01 | 0.03 | 0.01 | 90 | 1013.9 |
| 20260504081344 | 53 | 224 | 1.0 | 5.0 | 0.01 | 0.03 | 0.01 | 90 | 1014.3 |
| 20260504081336 | 53 | 229 | 2.0 | 5.0 | 0.01 | 0.03 | 0.01 | 90 | 1014.4 |
| 20260504080344 | 53 | 244 | 1.0 | 5.0 | 0.01 | 0.03 | 0.01 | 90 | 1014.4 |
| 20260504070340 | 55 | 269 | 4.0 | 13.0 | 0.00 | 0.02 | 0.00 | 87 | 1014.6 |
| 20260504060236 | 56 | 235 | 0.0 | 5.0 | 0.00 | 0.02 | 0.02 | 83 | 1013.4 |